Regional Weather Roundup
Issued by NWS

Home | Current Version | Previous Version | Text Only | Print | Product List | Glossary On
Versions: 1 2 3 4 5 6 7 8 9 10 11 12 13 14 15 16 17 18 19 20 21 22 23 24 25 26 27 28
000
ASUS42 KTBW 280417
RWRFL
FLORIDA REGIONAL WEATHER ROUNDUP
NATIONAL WEATHER SERVICE TAMPA BAY RUSKIN FL
1200 AM EDT SAT MAY 28 2016

NOTE: "FAIR" INDICATES FEW OR NO CLOUDS BELOW 12,000 FEET WITH NO
SIGNIFICANT WEATHER AND/OR OBSTRUCTIONS TO VISIBILITY.

FLZ001>010-012>015-112-114-115-280500-
PANHANDLE FLORIDA

CITY           SKY/WX    TMP DP  RH WIND       PRES   REMARKS
PENSACOLA      CLOUDY    76  65  68 S6        30.00S
MILTON NAS     MOCLDY    71  68  90 CALM      30.02
CRESTVIEW      CLOUDY    71  66  84 CALM      30.04S
DUKE FIELD     CLOUDY    70  65  83 E2        30.01S
VALPARAISO     CLOUDY    77  66  70 SE5       30.01F
MARY ESTHER    CLOUDY    77  66  68 CALM      29.99F
TRI COUNTY     FAIR      73  66  78 CALM      30.04R
PANAMA CITY    FAIR      71  67  87 CALM      30.01S
TYNDALL AFB    PTCLDY    70  68  94 CALM      30.01S
APALACHICOLA   CLEAR     68  66  93 NE3       30.01R

STATION/POSITION SKY/WX   TEMP    WIND        PRES    WAVE   SWELL
                          AIR SEA DIR/SP/G            HT/PER HT/PER
                          (F)     (DEG/KT/KT) (MB)    (FT/S) (FT/S)
30.1N   87.6W              79 80  150/ 12/ 14 1015.0F   3/ 5
29.2N   88.2W              78 79  120/ 14/ 17 1015.1R
28.8N   86.0W              78 80  110/  8/ 10 1016.2R   2/ 5   2/ 5
PANAMA CITY BEAC              81  160/  7/  9 1016.6R
TOWER C                    77      10/  4/  4 1016.9R
28.5N   84.5W              77 78   60/  6/  6 1016.2R   1/ 5   2/ 5

$$
FLZ011-016>038-118-127-128-134-139-239-280500-
NORTH FLORIDA

CITY           SKY/WX    TMP DP  RH WIND       PRES   REMARKS
MARIANNA       CLEAR     73  61  65 CALM      30.02R
TALLAHASSEE    CLEAR     74  64  71 E5        30.04R
PERRY          PTCLDY    74  65  73 NE3       30.04S
LIVE OAK       FAIR      73  68  83 CALM      30.06S
CROSS CITY       N/A     75  64  68 E6        30.02R
LAKE CITY      FAIR      72  66  83 E5        30.05S
GAINESVILLE    CLEAR     70  66  87 E7        30.04S
WILLISTON      FAIR      75  68  78 NE5       30.04S
PALATKA        FAIR      72  72 100 E6        30.05S
MAYPORT NAS    CLEAR     76  67  73 E10       30.05S
JACKSONVILLE   CLEAR     70  67  90 NE6       30.04S
JAX NAS        CLEAR     78  67  68 NE6       30.05S
JAX CECIL        N/A     68  66  94 CALM      30.05S
FERNANDINA BEA FAIR      79  66  65 E10       30.04F
ST AUGUSTINE   PTCLDY    77  68  73 E9        30.05S
PALM COAST     FAIR      72  68  87 E6        30.03S

STATION/POSITION SKY/WX   TEMP    WIND        PRES    WAVE   SWELL
                          AIR SEA DIR/SP/G            HT/PER HT/PER
                          (F)     (DEG/KT/KT) (MB)    (FT/S) (FT/S)
SHELL POINT                76      20/  3/  4 1014.9
KEATON BEACH               73      60/  6/  8 1016.6R
CEDAR KEY                  77      80/ 15/ 18 1016.6R
FERNANDINA                    81   80/  3/  6 1017.8R
30.7N   81.3W                 78                N/A     3/ 7
MAYPORT                       80   80/ 10/ 12 1017.7S
31.4N   80.9W              76 76   60/ 12/ 14 1017.9F   4/ 6   2/ 6
ST AUGUSTINE               77 80   70/ 12/ 13 1018.0S

$$
FLZ040-043>046-052-053-057-058-063-144-280500-
INTERIOR CENTRAL FLORIDA

CITY           SKY/WX    TMP DP  RH WIND       PRES   REMARKS
OCALA          CLEAR     73  64  73 CALM      30.04S
THE VILLAGES     N/A     73  68  83 CALM      29.94R
LEESBURG       CLEAR     74  67  78 E6        30.04R
SANFORD        CLEAR     73  66  78 NE6       30.02S
ORLANDO EXEC   CLEAR     75  68  78 NE6       30.02S
ORLANDO INTL   PTCLDY    74  67  78 NE7       30.02S
WINTER HAVEN   PTCLDY    75  67  76 NE3       30.03R
LAKELAND       CLOUDY    75  68  78 E7        30.02S
BARTOW         FAIR      73  68  83 CALM      30.03R
OKEECHOBEE     CLOUDY    70  70 100 NE5       30.00F

$$
FLZ041-047-054-059-064-141-147-280500-
EAST CENTRAL FLORIDA

CITY           SKY/WX    TMP DP  RH WIND       PRES   REMARKS
DAYTONA BEACH  PTCLDY    76  69  79 NE9       30.03S
DELAND           N/A     70  66  88 CALM      30.04S
JFK SPACE CTR  CLEAR     73  67  81 E6        30.01S
CAPE CANAVERAL CLEAR     76  69  77 NE5       30.00S
PATRICK AFB    CLEAR     78  71  77 NE9       30.01R
MELBOURNE      PTCLDY    77  70  79 NE12      30.01R
VERO BEACH     CLEAR     78  70  76 NE8       30.00S
FT PIERCE      PTCLDY    75  71  87 E3        29.99S
STUART         PTCLDY    79  72  78 E9        30.00R

STATION/POSITION SKY/WX   TEMP    WIND        PRES    WAVE   SWELL
                          AIR SEA DIR/SP/G            HT/PER HT/PER
                          (F)     (DEG/KT/KT) (MB)    (FT/S) (FT/S)
28.5N   80.2W              78 78   40/ 12/ 14 1016.1R
28.9N   78.5W              77 78   20/ 14/ 17 1015.1R
TRIDENT PIER                  81   30/  6/  8 1016.2R
28.4N   80.5W                 80                N/A     3/ 6
27.5N   80.2W                 79                N/A     4/ 6

$$
FLZ050-056-061-142-242-148-248-149-249-151-251-155-255-
160-260-280500-
WEST CENTRAL FLORIDA

CITY           SKY/WX    TMP DP  RH WIND       PRES   REMARKS
CRYSTAL RIVER  FAIR      73  66  78 E7        30.01S
INVERNESS      FAIR      73  68  83 E6        30.03S
BROOKSVILLE    CLEAR     74  66  76 E9        30.02R
ZEPHYRHILLS    CLOUDY    74  65  74 E5        30.02S
CLEARWATER AIR FAIR      77  68  73 SE3       30.00R
ST PETE CLEARW CLEAR     79  67  66 E12       30.00R
TAMPA INTL     CLEAR     79  67  66 E5        30.00R
TAMPA EXEC     CLEAR     75  68  78 E5        30.01S
PLANT CITY     CLOUDY    79  70  73 E5        30.03S
MACDILL AFB    CLEAR     77  69  76 E10G20    30.00R
PETER O KNIGHT CLEAR     79  70  73 E12       30.00S
ST PETERSBURG  CLEAR     79  69  71 E14       30.00R
SARASOTA       CLEAR     78  67  68 E9        29.98R
VENICE         NOT AVBL

STATION/POSITION SKY/WX   TEMP    WIND        PRES    WAVE   SWELL
                          AIR SEA DIR/SP/G            HT/PER HT/PER
                          (F)     (DEG/KT/KT) (MB)    (FT/S) (FT/S)
27.3N   84.2W                 81                N/A     2/ 5
CLEARWATER BEACH              83   80/  7/ 12 1015.3R
MIDDLE TAMPA BAY NOT AVBL
VENICE                     77 81  100/  6/  7 1015.4R

$$
FLZ066-069-070-075>078-162-262-165-265-280500-
SOUTHWEST FLORIDA AND KEYS

CITY           SKY/WX    TMP DP  RH WIND       PRES   REMARKS
PUNTA GORDA    CLEAR     73  69  87 E6        30.01R
FT MYERS       CLEAR     75  70  84 E6        29.98S
SOUTHWEST INTL CLEAR     75  69  81 E7        29.98F
NAPLES         CLEAR     74  73  97 CALM      29.97F
MARCO ISLAND   CLEAR     73  68  83 N3        29.98F
MARATHON       CLEAR     80  68  66 E5        29.96R
KEY WEST NAS   PTCLDY    79  71  76 E7        29.96S
KEY WEST INTL  PTCLDY    80  71  74 SE10      29.96S

STATION/POSITION SKY/WX   TEMP    WIND        PRES    WAVE   SWELL
                          AIR SEA DIR/SP/G            HT/PER HT/PER
                          (F)     (DEG/KT/KT) (MB)    (FT/S) (FT/S)
NAPLES                        84              1015.2R
26.0N   85.6W              80 81  110/ 12/ 14 1014.7R   3/ 5   2/ 8
DRY TORTUGAS               80     130/  7/  8 1014.7R
SAND KEY                   80     130/ 11/ 13 1014.9R
LONG KEY                   81 83  100/  9/ 10 1014.8R

$$
FLZ067-068-071>074-168-172>174-280500-
SOUTHEAST FLORIDA

CITY           SKY/WX    TMP DP  RH WIND       PRES   REMARKS
W PALM BEACH   LGT RAIN  77  71  82 E5        29.99R
FT LAUDER-EXEC CLEAR     78  69  73 E7        29.97R
FT LAUDERDALE  PTCLDY    80  70  71 E7        29.96S
POMPANO BEACH  CLEAR     79  70  74 E9        29.97S
PEMBROKE PINES CLEAR     78  70  76 E5        29.98S
OPA LOCKA      CLEAR     78  70  76 E3        29.98R
MIAMI          PTCLDY    79  70  74 NE8       29.97S
WEST KENDALL   CLEAR     76  70  82 CALM      29.97R
HOMESTEAD      MOCLDY    78  72  81 NE5       29.96S

STATION/POSITION SKY/WX   TEMP    WIND        PRES    WAVE   SWELL
                          AIR SEA DIR/SP/G            HT/PER HT/PER
                          (F)     (DEG/KT/KT) (MB)    (FT/S) (FT/S)
PORT EVERGLADES            80      60/  8/ 10 1014.7R
VIRGINIA KEY                  82   80/  7/ 12 1014.9R
LAKE WORTH                    81   70/ 11/ 12 1014.7R
FOWEY ROCKS                80 83   60/  9/ 10 1015.3R
SETTLEMENT POINT           78      50/ 10/ 11 1015.6S

$$





USA.gov is the U.S. government's official web portal to all federal, state and local government web resources and services.